Ft. Stewart, GA

5:52 PM EST on January 17, 2018 (GMT -0500)
Wright Army Air Field

Weather History for KLHW - October, 2012

Change the Weather History Date:

Wednesday, October 3, 2012

  Actual Average Record
Temperature  
Mean Temperature 74 °F -  
Max Temperature 81 °F 83 °F 94 °F (1986)
Min Temperature 68 °F 59 °F 42 °F (1974)
Cooling Degree Days 10    
Growing Degree Days 24 (Base 50)    
Moisture  
Dew Point 69 °F    
Average Humidity 83    
Maximum Humidity 100    
Minimum Humidity 63    
Precipitation  
Precipitation 0.27 in - - ()
Sea Level Pressure  
Sea Level Pressure 30.14 in    
Wind  
Wind Speed 2 mph (West)    
Max Wind Speed 8 mph    
Max Gust Speed -    
Visibility 8 miles    
Events Rain    
Averages and records for this station are not official NWS values.
T = Trace of Precipitation, MM = Missing Value Source: NWS Daily Summary

Daily Weather History Graph

Daily Weather History Graph

Search for Another Location

Airport or City:

Trip Planner

Search our weather history database for the weather conditions in past years. The results will help you decide how hot, cold, wet, or windy it might be!

Date:

Astronomy

Oct. 03, 2012 Rise Set
Actual Time 7:21 AM EDT 7:07 PM EDT
Civil Twilight 6:57 AM EDT 7:32 PM EDT
Nautical Twilight 6:29 AM EDT 8:00 PM EDT
Astronomical Twilight 6:00 AM EDT 8:28 PM EDT
Moon 9:14 PM EDT (10/3) 10:29 AM EDT (10/3)
Length of Visible Light 12h 34m
Length of Day
11h 46m
Waning Gibbous, 89% of the Moon is Illuminated
Oct 3
Waning Gibbous
Oct 8
Last Quarter
Oct 15
New
Oct 21
First Quarter
Oct 29
Full

Hourly Weather History & Observations

Time (EDT) Temp. Heat Index Dew Point Humidity Pressure Visibility Wind Dir Wind Speed Gust Speed Precip Events Conditions
12:55 AM 75.4 °F - 73.2 °F 93% 30.00 in 10.0 mi South 3.5 mph - N/A   Mostly Cloudy
1:55 AM 74.8 °F - 70.7 °F 87% 30.00 in 10.0 mi SSW 3.5 mph - N/A   Overcast
2:55 AM 73.9 °F - 67.1 °F 79% 30.01 in 10.0 mi SW 4.6 mph - N/A   Mostly Cloudy
3:55 AM 72.5 °F - 66.7 °F 82% 30.01 in 10.0 mi SW 3.5 mph - N/A   Mostly Cloudy
4:55 AM 72.1 °F - 66.6 °F 83% 30.02 in 10.0 mi Calm Calm - N/A   Overcast
5:55 AM 71.1 °F - 67.6 °F 89% 30.04 in 10.0 mi Calm Calm - N/A   Overcast
6:55 AM 70.7 °F - 67.6 °F 90% 30.06 in 10.0 mi Calm Calm - N/A   Overcast
7:55 AM 70.3 °F - 68.2 °F 93% 30.08 in 10.0 mi Calm Calm - N/A   Overcast
8:55 AM 71.4 °F - 68.0 °F 89% 30.09 in 10.0 mi Calm Calm - N/A   Mostly Cloudy
9:55 AM 73.4 °F - 67.1 °F 81% 30.11 in 10.0 mi WSW 3.5 mph - N/A   Mostly Cloudy
10:55 AM 75.6 °F - 67.6 °F 76% 30.13 in 10.0 mi Calm Calm - N/A   Mostly Cloudy
11:55 AM 76.8 °F - 68.4 °F 75% 30.13 in 10.0 mi Calm Calm - N/A   Mostly Cloudy
12:47 PM 78.8 °F - 69.8 °F 74% 30.13 in 10.0 mi Calm Calm - N/A   Light Drizzle
12:55 PM 78.8 °F - 68.5 °F 71% 30.14 in 10.0 mi SW 4.6 mph - 0.00 in   Light Drizzle
12:57 PM 78.8 °F - 68.0 °F 69% 30.14 in 10.0 mi SW 3.5 mph - N/A   Mostly Cloudy
1:01 PM 78.8 °F - 68.0 °F 69% 30.13 in 10.0 mi Calm Calm - N/A   Light Drizzle
1:11 PM 78.8 °F - 69.8 °F 74% 30.13 in 10.0 mi Calm Calm - N/A   Mostly Cloudy
1:55 PM 81.1 °F 83.7 °F 67.5 °F 63% 30.12 in 10.0 mi WSW 6.9 mph - 0.00 in   Mostly Cloudy
2:55 PM 80.8 °F 83.3 °F 67.5 °F 64% 30.10 in 10.0 mi West 5.8 mph - N/A   Mostly Cloudy
3:55 PM 80.6 °F 83.1 °F 67.5 °F 64% 30.10 in 10.0 mi Variable 4.6 mph - N/A   Mostly Cloudy
4:19 PM 80.6 °F 83.2 °F 68.0 °F 65% 30.11 in 10.0 mi NW 3.5 mph - N/A   Light Drizzle
4:31 PM 80.6 °F 83.2 °F 68.0 °F 65% 30.11 in 10.0 mi Calm Calm - N/A   Mostly Cloudy
4:55 PM 80.6 °F 83.1 °F 67.3 °F 64% 30.11 in 10.0 mi NNW 3.5 mph - 0.00 in   Scattered Clouds
5:51 PM 80.6 °F 83.2 °F 68.0 °F 65% 30.12 in 10.0 mi NNW 3.5 mph - N/A   Mostly Cloudy
5:53 PM 80.6 °F 83.2 °F 68.0 °F 65% 30.12 in 10.0 mi NNW 3.5 mph - N/A   Mostly Cloudy
5:55 PM 79.9 °F - 68.4 °F 68% 30.12 in 10.0 mi NW 3.5 mph - N/A   Mostly Cloudy
5:56 PM 80.6 °F 83.2 °F 68.0 °F 65% 30.12 in 10.0 mi NW 3.5 mph - N/A   Mostly Cloudy
6:00 PM 80.6 °F 83.9 °F 69.8 °F 70% 30.12 in 10.0 mi NW 3.5 mph - N/A   Overcast
6:06 PM 78.8 °F - 68.0 °F 69% 30.13 in 10.0 mi Calm Calm - N/A   Overcast
6:30 PM 78.8 °F - 69.8 °F 74% 30.13 in 10.0 mi Calm Calm - N/A   Overcast
6:55 PM 77.2 °F - 69.4 °F 77% 30.13 in 10.0 mi Calm Calm - N/A   Overcast
7:07 PM 77.0 °F - 69.8 °F 78% 30.14 in 10.0 mi Calm Calm - N/A   Light Drizzle
7:20 PM 75.2 °F - 71.6 °F 89% 30.14 in 10.0 mi Calm Calm - N/A   Overcast
7:31 PM 75.2 °F - 71.6 °F 89% 30.14 in 10.0 mi Calm Calm - N/A Rain Light Rain
7:55 PM 75.0 °F - 72.0 °F 90% 30.15 in 10.0 mi Calm Calm - 0.01 in Rain Light Rain
8:00 PM 75.2 °F - 71.6 °F 89% 30.15 in 10.0 mi Calm Calm - N/A Rain Light Rain
8:40 PM 73.4 °F - 69.8 °F 88% 30.17 in 6.0 mi West 6.9 mph - N/A Rain Heavy Rain
8:55 PM 71.1 °F - 68.0 °F 90% 30.19 in 6.0 mi West 6.9 mph - 0.05 in Rain Rain
9:06 PM 71.6 °F - 69.8 °F 94% 30.19 in 4.0 mi West 6.9 mph - N/A Rain Heavy Rain
9:07 PM 71.6 °F - 69.8 °F 94% 30.19 in 4.0 mi West 8.1 mph - N/A Rain Heavy Rain
9:13 PM 69.8 °F - 68.0 °F 94% 30.19 in 4.0 mi West 6.9 mph - N/A Rain Heavy Rain
9:19 PM 69.8 °F - 68.0 °F 94% 30.19 in 6.0 mi West 4.6 mph - N/A Rain Light Rain
9:40 PM 69.8 °F - 68.0 °F 94% 30.20 in 5.0 mi Calm Calm - N/A Rain Heavy Rain
9:45 PM 69.8 °F - 68.0 °F 94% 30.20 in 2.5 mi WNW 3.5 mph - N/A Rain Heavy Rain
9:47 PM 69.8 °F - 68.0 °F 94% 30.20 in 2.5 mi West 5.8 mph - N/A Rain Heavy Rain
9:48 PM 69.8 °F - 68.0 °F 94% 30.20 in 2.5 mi West 5.8 mph - N/A Rain Heavy Rain
9:54 PM 68.0 °F - 68.0 °F 100% 30.20 in 3.0 mi Calm Calm - N/A Rain Heavy Rain
9:55 PM 68.5 °F - 67.6 °F 97% 30.20 in 3.0 mi Calm Calm - 0.18 in Rain Rain
9:58 PM 68.0 °F - 68.0 °F 100% 30.21 in 5.0 mi Calm Calm - N/A Rain Light Rain
10:08 PM 68.0 °F - 68.0 °F 100% 30.21 in 7.0 mi Calm Calm - N/A Rain Rain
10:23 PM 68.0 °F - 68.0 °F 100% 30.21 in 8.0 mi Calm Calm - N/A Rain Rain
10:36 PM 68.0 °F - 68.0 °F 100% 30.21 in 10.0 mi Calm Calm - N/A   Mostly Cloudy
10:55 PM 68.7 °F - 68.5 °F 99% 30.19 in 10.0 mi NNE 3.5 mph - 0.03 in   Mostly Cloudy
11:02 PM 68.0 °F - 68.0 °F 100% 30.19 in 10.0 mi Calm Calm - N/A   Light Drizzle
11:11 PM 68.0 °F - 68.0 °F 100% 30.19 in 10.0 mi ENE 3.5 mph - N/A   Overcast
11:55 PM 68.4 °F - 67.8 °F 98% 30.18 in 10.0 mi Calm Calm - 0.00 in   Overcast